Wetterdaten: Sonntag, 14.09.2014
Datum Zeit Temp. A. Feuchte A. Luftdruck Regen Wind Richtung Richtung Sonnenschein ET UV Solar Taupunkt Windchill Windben Empfang
14.09.2014 00:00 11,8 C 91 % 1017,5 hPa 0,0 l/m 0,4 km/h (0 Bft) W-SW 255 0 min 0,000 mm 0,0 UV-I 0 W/m 10,4 C 11,8 C 4,0 km/h (1 Bft) 0,00 %
14.09.2014 00:15 11,8 C 91 % 1017,2 hPa 0,0 l/m 0,0 km/h (0 Bft) S 177 0 min 0,000 mm 0,0 UV-I 0 W/m 10,4 C 11,8 C 0,0 km/h (0 Bft) 0,00 %
14.09.2014 00:30 11,8 C 91 % 1017,3 hPa 0,0 l/m 0,0 km/h (0 Bft) S-SW 213 0 min 0,000 mm 0,0 UV-I 0 W/m 10,4 C 11,8 C 0,0 km/h (0 Bft) 0,00 %
14.09.2014 00:45 11,8 C 91 % 1017,4 hPa 0,0 l/m 0,0 km/h (0 Bft) W-SW 254 0 min 0,000 mm 0,0 UV-I 0 W/m 10,4 C 11,8 C 0,0 km/h (0 Bft) 0,00 %
14.09.2014 01:00 11,8 C 91 % 1017,5 hPa 0,0 l/m 0,0 km/h (0 Bft) SO 134 0 min 0,000 mm 0,0 UV-I 0 W/m 10,4 C 11,8 C 0,0 km/h (0 Bft) 0,00 %
14.09.2014 01:15 11,8 C 91 % 1017,3 hPa 0,0 l/m 0,0 km/h (0 Bft) W-SW 243 0 min 0,000 mm 0,0 UV-I 0 W/m 10,4 C 11,8 C 0,0 km/h (0 Bft) 0,00 %
14.09.2014 01:30 11,8 C 91 % 1017,5 hPa 0,0 l/m 0,0 km/h (0 Bft) S-SW 210 0 min 0,000 mm 0,0 UV-I 0 W/m 10,4 C 11,8 C 0,0 km/h (0 Bft) 0,00 %
14.09.2014 01:45 11,7 C 91 % 1017,3 hPa 0,0 l/m 0,0 km/h (0 Bft) S-SW 204 0 min 0,000 mm 0,0 UV-I 0 W/m 10,3 C 11,7 C 0,0 km/h (0 Bft) 0,00 %
14.09.2014 02:00 11,8 C 91 % 1017,3 hPa 0,0 l/m 0,0 km/h (0 Bft) SW 224 0 min 0,000 mm 0,0 UV-I 0 W/m 10,4 C 11,8 C 0,0 km/h (0 Bft) 0,00 %
14.09.2014 02:15 11,8 C 91 % 1017,3 hPa 0,0 l/m 0,0 km/h (0 Bft) SW 230 0 min 0,000 mm 0,0 UV-I 0 W/m 10,4 C 11,8 C 0,0 km/h (0 Bft) 0,00 %
14.09.2014 02:30 11,7 C 91 % 1017,3 hPa 0,0 l/m 0,0 km/h (0 Bft) S-SW 208 0 min 0,000 mm 0,0 UV-I 0 W/m 10,3 C 11,7 C 0,0 km/h (0 Bft) 0,00 %
14.09.2014 02:45 11,7 C 91 % 1017,2 hPa 0,0 l/m 0,0 km/h (0 Bft) SW 216 0 min 0,000 mm 0,0 UV-I 0 W/m 10,3 C 11,7 C 0,0 km/h (0 Bft) 0,00 %
14.09.2014 03:00 11,7 C 92 % 1017,2 hPa 0,0 l/m 0,0 km/h (0 Bft) O-SO 114 0 min 0,000 mm 0,0 UV-I 0 W/m 10,4 C 11,7 C 0,0 km/h (0 Bft) 0,00 %
14.09.2014 03:15 11,7 C 92 % 1017,0 hPa 0,3 l/m 0,0 km/h (0 Bft) S-SW 209 0 min 0,000 mm 0,0 UV-I 0 W/m 10,4 C 11,7 C 0,0 km/h (0 Bft) 0,00 %
14.09.2014 03:30 11,6 C 92 % 1016,9 hPa 0,3 l/m 0,0 km/h (0 Bft) S-SW 207 0 min 0,000 mm 0,0 UV-I 0 W/m 10,3 C 11,6 C 0,0 km/h (0 Bft) 0,00 %
14.09.2014 03:45 11,5 C 92 % 1016,6 hPa 0,3 l/m 0,0 km/h (0 Bft) S-SW 207 0 min 0,000 mm 0,0 UV-I 0 W/m 10,2 C 11,5 C 0,0 km/h (0 Bft) 0,00 %
14.09.2014 04:00 11,5 C 92 % 1016,5 hPa 0,3 l/m 0,0 km/h (0 Bft) SW 221 0 min 0,000 mm 0,0 UV-I 0 W/m 10,2 C 11,5 C 0,0 km/h (0 Bft) 0,00 %
14.09.2014 04:15 11,5 C 92 % 1016,3 hPa 0,0 l/m 0,0 km/h (0 Bft) S-SO 150 0 min 0,000 mm 0,0 UV-I 0 W/m 10,2 C 11,5 C 0,0 km/h (0 Bft) 0,00 %
14.09.2014 04:30 11,5 C 92 % 1016,3 hPa 0,3 l/m 0,0 km/h (0 Bft) S-SO 165 0 min 0,000 mm 0,0 UV-I 0 W/m 10,2 C 11,5 C 0,0 km/h (0 Bft) 0,00 %
14.09.2014 04:45 11,4 C 93 % 1016,4 hPa 0,0 l/m 0,0 km/h (0 Bft) S-SW 209 0 min 0,000 mm 0,0 UV-I 0 W/m 10,3 C 11,4 C 0,0 km/h (0 Bft) 0,00 %
14.09.2014 05:00 11,4 C 93 % 1016,2 hPa 0,0 l/m 0,0 km/h (0 Bft) W-SW 243 0 min 0,000 mm 0,0 UV-I 0 W/m 10,3 C 11,4 C 0,0 km/h (0 Bft) 0,00 %
14.09.2014 05:15 11,4 C 93 % 1016,0 hPa 0,0 l/m 0,0 km/h (0 Bft) W-SW 247 0 min 0,000 mm 0,0 UV-I 0 W/m 10,3 C 11,4 C 0,0 km/h (0 Bft) 0,00 %
14.09.2014 05:30 11,4 C 93 % 1015,8 hPa 0,0 l/m 0,0 km/h (0 Bft) O 89 0 min 0,000 mm 0,0 UV-I 0 W/m 10,3 C 11,4 C 0,0 km/h (0 Bft) 0,00 %
14.09.2014 05:45 11,4 C 92 % 1015,8 hPa 0,3 l/m 1,4 km/h (1 Bft) W-SW 256 0 min 0,000 mm 0,0 UV-I 0 W/m 10,1 C 11,4 C 4,0 km/h (1 Bft) 0,00 %
14.09.2014 06:00 11,4 C 92 % 1015,8 hPa 0,3 l/m 0,0 km/h (0 Bft) SW 228 0 min 0,000 mm 0,0 UV-I 0 W/m 10,1 C 11,4 C 0,0 km/h (0 Bft) 0,00 %
14.09.2014 06:15 11,4 C 92 % 1015,6 hPa 0,3 l/m 0,0 km/h (0 Bft) NW 309 0 min 0,000 mm 0,0 UV-I 0 W/m 10,1 C 11,4 C 0,0 km/h (0 Bft) 0,00 %
14.09.2014 06:30 11,4 C 92 % 1015,8 hPa 0,6 l/m 0,0 km/h (0 Bft) W-SW 250 0 min 0,000 mm 0,0 UV-I 0 W/m 10,1 C 11,4 C 0,0 km/h (0 Bft) 0,00 %
14.09.2014 06:45 11,4 C 92 % 1015,6 hPa 1,5 l/m 0,0 km/h (0 Bft) S-SW 211 0 min 0,000 mm 0,0 UV-I 0 W/m 10,1 C 11,4 C 0,0 km/h (0 Bft) 0,00 %
14.09.2014 07:00 11,5 C 92 % 1015,3 hPa 0,3 l/m 0,0 km/h (0 Bft) W 280 0 min 0,000 mm 0,0 UV-I 0 W/m 10,2 C 11,5 C 0,0 km/h (0 Bft) 0,00 %
14.09.2014 07:15 11,5 C 92 % 1015,5 hPa 0,3 l/m 0,0 km/h (0 Bft) O-NO 75 0 min 0,000 mm 0,0 UV-I 0 W/m 10,2 C 11,5 C 0,0 km/h (0 Bft) 0,00 %
14.09.2014 07:30 11,5 C 92 % 1015,6 hPa 0,0 l/m 0,0 km/h (0 Bft) N-NW 347 0 min 0,000 mm 0,0 UV-I 0 W/m 10,2 C 11,5 C 0,0 km/h (0 Bft) 0,00 %
14.09.2014 07:45 11,5 C 92 % 1015,4 hPa 0,0 l/m 0,0 km/h (0 Bft) SW 216 0 min 0,000 mm 1,0 UV-I 0 W/m 10,2 C 11,5 C 0,0 km/h (0 Bft) 0,00 %
14.09.2014 08:00 11,5 C 92 % 1015,4 hPa 1,2 l/m 0,0 km/h (0 Bft) W-SW 256 0 min 0,000 mm 1,0 UV-I 5 W/m 10,2 C 11,5 C 0,0 km/h (0 Bft) 0,00 %
14.09.2014 08:15 11,6 C 92 % 1015,4 hPa 0,3 l/m 0,0 km/h (0 Bft) N 350 0 min 0,000 mm 1,0 UV-I 16 W/m 10,3 C 11,6 C 0,0 km/h (0 Bft) 0,00 %
14.09.2014 08:30 11,7 C 92 % 1015,1 hPa 0,0 l/m 0,0 km/h (0 Bft) N-NO 30 0 min 0,000 mm 1,0 UV-I 30 W/m 10,4 C 11,7 C 0,0 km/h (0 Bft) 0,00 %
14.09.2014 08:45 12,0 C 92 % 1015,1 hPa 0,6 l/m 0,0 km/h (0 Bft) O-SO 103 0 min 0,000 mm 1,0 UV-I 70 W/m 10,7 C 12,0 C 0,0 km/h (0 Bft) 0,00 %
14.09.2014 09:00 11,9 C 92 % 1015,1 hPa 0,3 l/m 0,4 km/h (0 Bft) S-SW 213 0 min 0,000 mm 0,0 UV-I 45 W/m 10,6 C 11,9 C 4,0 km/h (1 Bft) 0,00 %
14.09.2014 09:15 12,0 C 92 % 1015,2 hPa 1,5 l/m 0,0 km/h (0 Bft) N-NW 347 0 min 0,000 mm 1,0 UV-I 34 W/m 10,7 C 12,0 C 0,0 km/h (0 Bft) 0,00 %
14.09.2014 09:30 12,0 C 92 % 1015,0 hPa 1,5 l/m 0,4 km/h (0 Bft) O-SO 121 0 min 0,000 mm 1,0 UV-I 71 W/m 10,7 C 12,0 C 4,0 km/h (1 Bft) 0,00 %
14.09.2014 09:45 12,0 C 92 % 1015,2 hPa 0,9 l/m 1,4 km/h (1 Bft) W-SW 256 0 min 0,000 mm 1,0 UV-I 75 W/m 10,7 C 12,0 C 4,0 km/h (1 Bft) 0,00 %
14.09.2014 10:00 12,0 C 92 % 1015,0 hPa 0,6 l/m 1,4 km/h (1 Bft) W-SW 255 0 min 0,000 mm 1,0 UV-I 52 W/m 10,7 C 12,0 C 4,0 km/h (1 Bft) 0,00 %
14.09.2014 10:15 12,1 C 92 % 1015,1 hPa 0,6 l/m 0,4 km/h (0 Bft) O 82 0 min 0,000 mm 1,0 UV-I 52 W/m 10,8 C 12,1 C 4,0 km/h (1 Bft) 0,00 %
14.09.2014 10:30 12,2 C 92 % 1015,1 hPa 0,9 l/m 0,0 km/h (0 Bft) W-NW 298 0 min 0,000 mm 1,0 UV-I 69 W/m 10,9 C 12,2 C 0,0 km/h (0 Bft) 0,00 %
14.09.2014 10:45 12,3 C 92 % 1015,2 hPa 0,9 l/m 0,0 km/h (0 Bft) S-SW 204 0 min 0,000 mm 1,0 UV-I 56 W/m 11,0 C 12,3 C 0,0 km/h (0 Bft) 0,00 %
14.09.2014 11:00 12,4 C 92 % 1015,1 hPa 0,3 l/m 0,7 km/h (0 Bft) W-SW 256 0 min 0,000 mm 2,0 UV-I 72 W/m 11,1 C 12,4 C 4,0 km/h (1 Bft) 0,00 %
14.09.2014 11:15 12,5 C 92 % 1015,1 hPa 0,3 l/m 0,0 km/h (0 Bft) W-SW 252 0 min 0,000 mm 2,0 UV-I 94 W/m 11,2 C 12,5 C 0,0 km/h (0 Bft) 0,00 %
14.09.2014 11:30 12,7 C 92 % 1014,8 hPa 0,3 l/m 0,0 km/h (0 Bft) O-SO 113 0 min 0,000 mm 1,0 UV-I 121 W/m 11,4 C 12,7 C 0,0 km/h (0 Bft) 0,00 %
14.09.2014 11:45 13,0 C 91 % 1014,8 hPa 0,3 l/m 0,4 km/h (0 Bft) NO 40 0 min 0,000 mm 2,0 UV-I 146 W/m 11,6 C 13,0 C 4,0 km/h (1 Bft) 0,00 %
14.09.2014 12:00 13,1 C 90 % 1014,6 hPa 0,0 l/m 1,4 km/h (1 Bft) W-SW 256 0 min 0,000 mm 2,0 UV-I 152 W/m 11,5 C 13,1 C 4,0 km/h (1 Bft) 0,00 %
14.09.2014 12:15 13,6 C 90 % 1014,7 hPa 0,0 l/m 1,8 km/h (1 Bft) SW 230 0 min 0,000 mm 2,0 UV-I 164 W/m 12,0 C 13,6 C 4,0 km/h (1 Bft) 0,00 %
14.09.2014 12:30 13,5 C 89 % 1014,6 hPa 0,0 l/m 1,8 km/h (1 Bft) W-SW 246 0 min 0,000 mm 1,0 UV-I 162 W/m 11,7 C 13,5 C 4,0 km/h (1 Bft) 0,00 %
14.09.2014 12:45 13,9 C 89 % 1014,7 hPa 0,0 l/m 0,0 km/h (0 Bft) O-SO 123 0 min 0,000 mm 2,0 UV-I 211 W/m 12,1 C 13,9 C 0,0 km/h (0 Bft) 0,00 %
14.09.2014 13:00 13,8 C 88 % 1014,8 hPa 0,0 l/m 0,0 km/h (0 Bft) N-NW 340 0 min 0,000 mm 2,0 UV-I 181 W/m 11,8 C 13,8 C 0,0 km/h (0 Bft) 0,00 %
14.09.2014 13:15 13,8 C 88 % 1014,9 hPa 0,0 l/m 0,7 km/h (0 Bft) N 349 0 min 0,000 mm 3,0 UV-I 151 W/m 11,8 C 13,8 C 4,0 km/h (1 Bft) 0,00 %
14.09.2014 13:30 13,8 C 88 % 1014,8 hPa 0,0 l/m 0,0 km/h (0 Bft) O-NO 63 0 min 0,000 mm 2,0 UV-I 124 W/m 11,8 C 13,8 C 0,0 km/h (0 Bft) 0,00 %
14.09.2014 13:45 14,1 C 87 % 1014,8 hPa 0,0 l/m 0,0 km/h (0 Bft) S-SW 208 0 min 0,000 mm 2,0 UV-I 143 W/m 12,0 C 14,1 C 0,0 km/h (0 Bft) 0,00 %
14.09.2014 14:00 14,3 C 87 % 1014,5 hPa 0,0 l/m 0,4 km/h (0 Bft) N-NW 345 0 min 0,000 mm 1,0 UV-I 115 W/m 12,2 C 14,3 C 4,0 km/h (1 Bft) 0,00 %
14.09.2014 14:15 14,7 C 86 % 1014,3 hPa 0,0 l/m 0,0 km/h (0 Bft) W-SW 250 0 min 0,000 mm 1,0 UV-I 242 W/m 12,4 C 14,7 C 0,0 km/h (0 Bft) 0,00 %
14.09.2014 14:30 14,5 C 86 % 1014,4 hPa 0,0 l/m 0,0 km/h (0 Bft) S-SO 155 0 min 0,000 mm 1,0 UV-I 178 W/m 12,2 C 14,5 C 0,0 km/h (0 Bft) 0,00 %
14.09.2014 14:45 14,4 C 86 % 1014,5 hPa 0,0 l/m 0,0 km/h (0 Bft) S 172 0 min 0,000 mm 1,0 UV-I 198 W/m 12,1 C 14,4 C 0,0 km/h (0 Bft) 0,00 %
14.09.2014 15:00 14,3 C 87 % 1014,4 hPa 0,0 l/m 0,4 km/h (0 Bft) SW 218 0 min 0,000 mm 1,0 UV-I 108 W/m 12,2 C 14,3 C 4,0 km/h (1 Bft) 0,00 %
14.09.2014 15:15 14,3 C 87 % 1014,4 hPa 0,0 l/m 0,0 km/h (0 Bft) SW 219 0 min 0,000 mm 1,0 UV-I 107 W/m 12,2 C 14,3 C 0,0 km/h (0 Bft) 0,00 %
14.09.2014 15:30 14,1 C 88 % 1014,5 hPa 0,0 l/m 0,0 km/h (0 Bft) SW 216 0 min 0,000 mm 1,0 UV-I 83 W/m 12,1 C 14,1 C 0,0 km/h (0 Bft) 0,00 %
14.09.2014 15:45 14,2 C 88 % 1014,4 hPa 0,0 l/m 0,4 km/h (0 Bft) S-SW 195 0 min 0,000 mm 1,0 UV-I 83 W/m 12,2 C 14,2 C 4,0 km/h (1 Bft) 0,00 %
14.09.2014 16:00 14,1 C 88 % 1014,7 hPa 0,0 l/m 0,0 km/h (0 Bft) SW 233 0 min 0,000 mm 1,0 UV-I 87 W/m 12,1 C 14,1 C 0,0 km/h (0 Bft) 0,00 %
14.09.2014 16:15 14,1 C 89 % 1014,7 hPa 0,0 l/m 0,7 km/h (0 Bft) W-SW 252 0 min 0,000 mm 1,0 UV-I 92 W/m 12,3 C 14,1 C 4,0 km/h (1 Bft) 0,00 %
14.09.2014 16:30 14,2 C 89 % 1014,6 hPa 0,0 l/m 0,7 km/h (0 Bft) NW 314 0 min 0,000 mm 1,0 UV-I 60 W/m 12,4 C 14,2 C 4,0 km/h (1 Bft) 0,00 %
14.09.2014 16:45 14,4 C 88 % 1014,7 hPa 0,0 l/m 0,0 km/h (0 Bft) W-SW 248 0 min 0,000 mm 1,0 UV-I 89 W/m 12,4 C 14,4 C 0,0 km/h (0 Bft) 0,00 %
14.09.2014 17:00 14,7 C 87 % 1014,8 hPa 0,0 l/m 0,0 km/h (0 Bft) W-SW 251 0 min 0,000 mm 0,0 UV-I 131 W/m 12,6 C 14,7 C 0,0 km/h (0 Bft) 0,00 %
14.09.2014 17:15 15,0 C 85 % 1014,4 hPa 0,0 l/m 0,0 km/h (0 Bft) W-SW 255 0 min 0,000 mm 1,0 UV-I 163 W/m 12,5 C 15,0 C 0,0 km/h (0 Bft) 0,00 %
14.09.2014 17:30 15,0 C 85 % 1014,5 hPa 0,0 l/m 0,0 km/h (0 Bft) S-SW 195 0 min 0,000 mm 0,0 UV-I 133 W/m 12,5 C 15,0 C 0,0 km/h (0 Bft) 0,00 %
14.09.2014 17:45 14,7 C 86 % 1014,5 hPa 0,0 l/m 0,0 km/h (0 Bft) N 353 0 min 0,000 mm 0,0 UV-I 78 W/m 12,4 C 14,7 C 0,0 km/h (0 Bft) 0,00 %
14.09.2014 18:00 14,5 C 87 % 1014,6 hPa 0,0 l/m 0,0 km/h (0 Bft) SW 232 0 min 0,000 mm 0,0 UV-I 37 W/m 12,4 C 14,5 C 0,0 km/h (0 Bft) 0,00 %
14.09.2014 18:15 14,5 C 87 % 1014,7 hPa 0,0 l/m 0,0 km/h (0 Bft) S 189 0 min 0,000 mm 0,0 UV-I 59 W/m 12,4 C 14,5 C 0,0 km/h (0 Bft) 0,00 %
14.09.2014 18:30 14,4 C 87 % 1014,6 hPa 0,0 l/m 0,0 km/h (0 Bft) S-SW 202 0 min 0,000 mm 0,0 UV-I 31 W/m 12,3 C 14,4 C 0,0 km/h (0 Bft) 0,00 %
14.09.2014 18:45 14,3 C 87 % 1014,6 hPa 0,0 l/m 0,0 km/h (0 Bft) N-NW 336 0 min 0,000 mm 0,0 UV-I 23 W/m 12,2 C 14,3 C 0,0 km/h (0 Bft) 0,00 %
14.09.2014 19:00 14,1 C 87 % 1015,0 hPa 0,0 l/m 0,0 km/h (0 Bft) W-SW 254 0 min 0,000 mm 0,0 UV-I 1 W/m 12,0 C 14,1 C 0,0 km/h (0 Bft) 0,00 %
14.09.2014 19:15 14,0 C 88 % 1014,9 hPa 0,0 l/m 0,0 km/h (0 Bft) SW 226 0 min 0,000 mm 0,0 UV-I 0 W/m 12,0 C 14,0 C 0,0 km/h (0 Bft) 0,00 %
14.09.2014 19:30 13,9 C 89 % 1015,1 hPa 0,0 l/m 0,0 km/h (0 Bft) S-SW 211 0 min 0,000 mm 0,0 UV-I 0 W/m 12,1 C 13,9 C 0,0 km/h (0 Bft) 0,00 %
14.09.2014 19:45 13,8 C 90 % 1015,3 hPa 0,0 l/m 0,0 km/h (0 Bft) SW 230 0 min 0,000 mm 0,0 UV-I 0 W/m 12,2 C 13,8 C 0,0 km/h (0 Bft) 0,00 %
14.09.2014 20:00 13,8 C 90 % 1015,3 hPa 0,0 l/m 0,0 km/h (0 Bft) W-SW 249 0 min 0,000 mm 0,0 UV-I 0 W/m 12,2 C 13,8 C 0,0 km/h (0 Bft) 0,00 %
14.09.2014 20:15 13,7 C 90 % 1015,4 hPa 0,0 l/m 0,0 km/h (0 Bft) SW 223 0 min 0,000 mm 0,0 UV-I 0 W/m 12,1 C 13,7 C 0,0 km/h (0 Bft) 0,00 %
14.09.2014 20:30 13,6 C 90 % 1015,4 hPa 0,0 l/m 0,0 km/h (0 Bft) S 175 0 min 0,000 mm 0,0 UV-I 0 W/m 12,0 C 13,6 C 0,0 km/h (0 Bft) 0,00 %
14.09.2014 20:45 13,5 C 90 % 1015,4 hPa 0,0 l/m 0,0 km/h (0 Bft) SW 232 0 min 0,000 mm 0,0 UV-I 0 W/m 11,9 C 13,5 C 0,0 km/h (0 Bft) 0,00 %
14.09.2014 21:00 13,4 C 91 % 1015,5 hPa 0,0 l/m 0,0 km/h (0 Bft) SW 232 0 min 0,000 mm 0,0 UV-I 0 W/m 12,0 C 13,4 C 0,0 km/h (0 Bft) 0,00 %
14.09.2014 21:15 13,2 C 91 % 1015,6 hPa 0,0 l/m 0,0 km/h (0 Bft) SO 142 0 min 0,000 mm 0,0 UV-I 0 W/m 11,8 C 13,2 C 0,0 km/h (0 Bft) 0,00 %
14.09.2014 21:30 12,9 C 92 % 1015,6 hPa 0,0 l/m 0,0 km/h (0 Bft) SO 129 0 min 0,000 mm 0,0 UV-I 0 W/m 11,6 C 12,9 C 0,0 km/h (0 Bft) 0,00 %
14.09.2014 21:45 12,8 C 92 % 1015,7 hPa 0,0 l/m 0,0 km/h (0 Bft) SO 129 0 min 0,000 mm 0,0 UV-I 0 W/m 11,5 C 12,8 C 0,0 km/h (0 Bft) 0,00 %
14.09.2014 22:00 12,4 C 92 % 1015,5 hPa 0,0 l/m 0,0 km/h (0 Bft) SO 129 0 min 0,000 mm 0,0 UV-I 0 W/m 11,1 C 12,4 C 0,0 km/h (0 Bft) 0,00 %
14.09.2014 22:15 12,0 C 92 % 1015,7 hPa 0,0 l/m 0,0 km/h (0 Bft) SO 129 0 min 0,000 mm 0,0 UV-I 0 W/m 10,7 C 12,0 C 0,0 km/h (0 Bft) 0,00 %
14.09.2014 22:30 11,6 C 92 % 1015,8 hPa 0,0 l/m 0,0 km/h (0 Bft) SO 129 0 min 0,000 mm 0,0 UV-I 0 W/m 10,3 C 11,6 C 0,0 km/h (0 Bft) 0,00 %
14.09.2014 22:45 11,3 C 93 % 1015,8 hPa 0,0 l/m 0,0 km/h (0 Bft) SO 129 0 min 0,000 mm 0,0 UV-I 0 W/m 10,2 C 11,3 C 0,0 km/h (0 Bft) 0,00 %
14.09.2014 23:00 11,1 C 94 % 1015,5 hPa 0,0 l/m 0,0 km/h (0 Bft) SO 129 0 min 0,000 mm 0,0 UV-I 0 W/m 10,2 C 11,1 C 0,0 km/h (0 Bft) 0,00 %
14.09.2014 23:15 11,0 C 93 % 1015,7 hPa 0,0 l/m 0,0 km/h (0 Bft) SO 129 0 min 0,000 mm 0,0 UV-I 0 W/m 9,9 C 11,0 C 0,0 km/h (0 Bft) 0,00 %
14.09.2014 23:30 10,8 C 94 % 1015,8 hPa 0,0 l/m 0,0 km/h (0 Bft) SO 129 0 min 0,000 mm 0,0 UV-I 0 W/m 9,9 C 10,8 C 0,0 km/h (0 Bft) 0,00 %
14.09.2014 23:45 10,6 C 94 % 1015,8 hPa 0,0 l/m 0,0 km/h (0 Bft) SO 129 0 min 0,000 mm 0,0 UV-I 0 W/m 9,7 C 10,6 C 0,0 km/h (0 Bft) 0,00 %
_ Min-Zeit 23:45 17:15 14:15 - 00:15 - - - - - - 23:45 23:45 00:15 00:00
Minimum _ 10,6 C 85 % 1014,3 hPa - 0,0 km/h (0 Bft) - - - - - - 9,7 C 10,6 C 0,0 km/h (0 Bft) 0,00 %
_ Max-Zeit 17:15 23:00 00:00 06:45 12:15 - - 00:00 00:00 13:15 14:15 17:00 17:15 00:00 00:00
Maximum _ 15,0 C 94 % 1017,5 hPa 1,5 l/m 1,8 km/h
SW (1 Bft)
- - 0 min 0,000 mm 3,0 UV-I 242 W/m 12,6 C 15,0 C 4,0 km/h
W-SW (1 Bft)
0,00 %
Durchschnitt _ 12,7 C 90 % 1015,5 hPa #15,6 l/m 0,2 km/h (0 Bft) W-SW - #0 min. #0,000 mm 1,3 UV-I 98 W/m 11,1 C 12,7 C 0,7 km/h (0 Bft) 0,00 %